{"data":{"norad_id":67215,"intl_designator":"2025-304Z","name":"STARLINK-36221","alt_names":[],"object_type":"PAYLOAD","status":"ACTIVE","operator":null,"country":"US","launch_date":"2025-12-17","launch_site_code":"AFWTR","launch_vehicle":null,"mission":null,"orbit_class":"UNKNOWN","rcs_meters":null,"size_class":null,"mass_kg":null,"dimensions":null,"purposes":["comms"],"wikipedia_slug":null,"has_3d_model":false,"image_url":null,"decayed_at":null,"tle_current":{"epoch":"2026-09-20T02:37:34.732128Z","epoch_age_seconds":109200,"freshness":"FRESH","line1":"1 67215U 25304Z   26263.10942977  .00001736  00000+0  15319-3 0  9991","line2":"2 67215  70.0018  44.3791 0002652 271.1030  88.9826 14.98335070 43004","mean_motion":14.9833507,"eccentricity":0.0002652,"inclination_deg":70.0018,"raan_deg":44.3791,"arg_perigee_deg":271.103,"mean_anomaly_deg":88.9826,"bstar":0.00015319,"rev_number":4300,"period_min":96.106673923076,"perigee_km":570.19702543512,"apogee_km":573.88339942859,"semimajor_km":6950.1772124319,"source":"CELESTRAK","updated_at":"2026-09-20T09:00:43.484414Z"}}}